Regional Weather Roundup
Issued by NWS Little Rock, AR

Home | Current Version | Previous Version | Text Only | Print | Product List | Glossary On
Versions: 1 2 3 4 5 6 7 8 9 10 11 12 13 14 15 16 17 18 19 20 21 22 23 24 25 26 27 28 29 30 31 32 33 34 35 36 37 38 39 40 41 42 43 44 45 46 47 48 49 50
000
ASUS44 KLZK 032205
RWRLZK

WEATHER ROUNDUP FOR ARKANSAS
NATIONAL WEATHER SERVICE LITTLE ROCK AR
400 PM CST SAT DEC 03 2016

NOTE: "FAIR" INDICATES FEW OR NO CLOUDS BELOW 12,000 FEET WITH NO
SIGNIFICANT WEATHER AND/OR OBSTRUCTIONS TO VISIBILITY.

ARZ001-003-010-029-032300-
NORTHWEST ARKANSAS

CITY           SKY/WX    TMP DP  RH WIND       PRES   REMARKS
FAYETTEVILLE   LGT RAIN  42  42 100 E6        30.15S FOG
FORT SMITH     LGT RAIN  45  42  89 E12       30.14S FOG
HARRISON       LGT RAIN  40  38  93 E9        30.19S FOG
BENTONVILLE    CLOUDY    43  36  75 E8        30.15F
ROGERS         LGT RAIN  42  39  89 E10       30.15F
SILOAM SPGS    CLOUDY    45  39  81 E6        30.13F
HIGHFILL       LGT RAIN  43  41  93 E8        30.14F FOG
SPRINGDALE     LGT RAIN  43  41  93 E8        30.16F FOG
$$

ARZ004-005-016-032300-
NORTH CENTRAL ARKANSAS

CITY           SKY/WX    TMP DP  RH WIND       PRES   REMARKS
BATESVILLE     CLOUDY    43  37  81 NE8       30.23S
FLIPPIN        CLOUDY    43  36  75 E7        30.19S
MTN HOME       LGT RAIN  40  38  93 E7        30.21R
$$

ARZ040-041-032300-
WEST CENTRAL ARKANSAS

CITY           SKY/WX    TMP DP  RH WIND       PRES   REMARKS
MENA           CLOUDY    46  45  93 E10       30.09F
MOUNT IDA      LGT RAIN  46  44  93 VRB7      30.09R
$$

ARZ009-017-025-026-028-032300-
NORTHEAST ARKANSAS

CITY           SKY/WX    TMP DP  RH WIND       PRES   REMARKS
CORNING        LGT RAIN  43  37  81 E9        30.27R
JONESBORO      LGT RAIN  44  39  82 NE7       30.24S
NEWPORT        LGT RAIN  43  41  93 NE9       30.24
WALNUT RIDGE   CLOUDY    43  36  75 NE9       30.25R
BLYTHEVILLE    LGT RAIN  44  38  79 E7        30.25F
$$

ARZ022-023-033-042-044-032300-
CENTRAL ARKANSAS

CITY           SKY/WX    TMP DP  RH WIND       PRES   REMARKS
LITTLE ROCK    RAIN      45  45 100 E14       30.17R FOG
N LITTLE ROCK    N/A     44  42  95 E9        30.18S
JACKSONVILLE   LGT RAIN  44  44  99 E8        30.16F FOG
SEARCY         RAIN      43  42  97 NE9       30.23R
HOT SPRINGS    LGT RAIN  47  45  93 E10       30.12S
RUSSELLVILLE   LGT RAIN  44  41  89 E6        30.16F FOG
$$

ARZ036-032300-
EAST ARKANSAS

CITY           SKY/WX    TMP DP  RH WIND       PRES   REMARKS
WEST MEMPHIS   LGT RAIN  45  40  82 E7        30.21F
$$

ARZ050-053-066-070-073-032300-
SOUTHWEST ARKANSAS

CITY           SKY/WX    TMP DP  RH WIND       PRES   REMARKS
ARKADELPHIA    RAIN      46  46 100 E8        30.12S
CAMDEN         HVY RAIN  46  43  87 E8        30.10R
TEXARKANA      LGT RAIN  46  46 100 E9G17     30.03F FOG
EL DORADO      HVY RAIN  46  45  96 E14G22    30.06R FOG
DE QUEEN       LGT RAIN  46  46 100 E9        30.05F FOG
$$

ARZ056-057-069-032300-
SOUTHEAST ARKANSAS

CITY           SKY/WX    TMP DP  RH WIND       PRES   REMARKS
PINE BLUFF     LGT RAIN  46  44  93 E16G22    30.13F
STUTTGART      CLOUDY    46  41  81 E12       30.18R
MONTICELLO     CLOUDY    46  44  93 E14G22    30.09F

$$





USA.gov is the U.S. government's official web portal to all federal, state and local government web resources and services.